Location: Unspecified
(17.6330°N, 0.0000°E)
Time: 01:59:35
(UTC+00:00)

A-11 Canister half - Pass Details

Date: 18 June 2019
Orbit: 1514 x 1686 km, 47.2° (Epoch: 13 October)

Event Time Altitude Azimuth Distance (km) Brightness Sun altitude
Rises 17:16:25 0° 328° (NNW) 4,723 12.4 16.9°
Reaches altitude 10° 17:20:20 10° 342° (NNW) 3,715 11.7 16.0°
Maximum altitude 17:27:38 25° 34° (NE) 2,693 10.3 14.4°
Drops below altitude 10° 17:34:49 10° 86° (E) 3,666 10.5 12.7°
Sets 17:38:36 0° 99° (E) 4,648 10.9 11.9°
